Погода в Колшеве

Россия / Ивановская область     57°40′39″N   41°39′22″E
темп.,
°C
ветер,
м/с
пор.,
м/с
влажн.,
%
обл.,
%
осадки,
мм/ч
давл.,
гПа
погр.,
м
21 апреля, ср
ср2100:00+4в51458100 0.0 1019652
03:00+3вюв51572100 0.4 1016847
06:00+1вюв71897100 3.4 1011929
09:00+2вюв81794100 6.6 10091034
12:00+4юв81789100 0.0 1007983
15:00+6ююв61590100 1.5 10071359
18:00+3ююз3898100 2.9 1009716
21:00+3ююз3893100 3.1 1010490
22 апреля, чт
чт2200:00+3ююз3893100 0.0 1011388
03:00+2ююз3895100 0.0 1012330
06:00+3ю3896100 0.0 1014354
09:00+5ююз4890100 0.0 1015542
12:00+7ю578589 0.1 1016795
15:00+8ю5981100 0.2 10161086
18:00+8ю498117 0.0 1017776
21:00+6ю2988100 0.0 1018216
23 апреля, пт
пт2300:00+6ююв31092100 0.0 1018321
03:00+5ююв3109337 0.0 1018302
06:00+6юв41390100 0.0 1017425
09:00+9ююв5118087 0.1 1017635
12:00+13ю596459 0.1 10171141
15:00+15ююв5106086 1.3 10161733
18:00+12ююв5116887 1.6 1016627
21:00+9ююв413795 1.6 1017356
24 апреля, сб
сб2400:00+8юв413845 0.0 1016300
03:00+8юв31085100 0.0 1014261
06:00+8вюв4128391 0.0 1013368
09:00+12юв511709 0.3 10111095
12:00+14юв7126760 1.6 10101549
15:00+13юв6116618 2.4 10081498
18:00+12вюв61260100 0.1 10061479
21:00+9вюв61375100 0.1 1004948
25 апреля, вс
вс2500:00+8вюв71483100 0.1 10011220
03:00+4ююв4896100 4.1 1001709
06:00+2ююз51096100 0.6 1002709
09:00+3ююз51095100 1.1 1003847
12:00+7юз6963100 0.9 10041819
15:00+7юз5965100 2.0 10051692
18:00+5юз597330 1.0 10071160
21:00+2ююз39858 1.1 1008377